Time,TemperatureF,DewpointF,PressureIn,WindDirection,WindDirectionDegrees,WindSpeedMPH,WindSpeedGustMPH,Humidity,HourlyPrecipIn,Conditions,Clouds,dailyrainin,SoftwareType,DateUTC
2013-06-17 00:01:00,73.6,69.1,29.91,SW,221,0.0,5.0,86,0.00,,,0.16,meteohub,2013-06-17 05:01:00,
2013-06-17 00:06:00,73.6,69.1,29.91,SW,228,0.0,5.0,86,0.00,,,0.00,meteohub,2013-06-17 05:06:00,
2013-06-17 00:11:00,73.6,69.1,29.91,SW,233,2.0,6.0,86,0.00,,,0.00,meteohub,2013-06-17 05:11:00,
2013-06-17 00:16:00,73.6,69.1,29.91,SW,218,3.0,6.0,86,0.00,,,0.00,meteohub,2013-06-17 05:16:00,
2013-06-17 00:22:00,73.6,69.1,29.91,SW,234,1.0,6.0,86,0.00,,,0.00,meteohub,2013-06-17 05:22:00,
2013-06-17 00:27:00,73.4,68.9,29.91,SSW,197,2.0,5.0,86,0.00,,,0.00,meteohub,2013-06-17 05:27:00,
2013-06-17 00:32:00,73.2,68.7,29.91,SW,223,0.0,5.0,86,0.00,,,0.00,meteohub,2013-06-17 05:32:00,
2013-06-17 00:37:00,73.2,69.1,29.91,SW,229,1.0,6.0,87,0.00,,,0.00,meteohub,2013-06-17 05:37:00,
2013-06-17 00:42:00,73.2,69.1,29.91,SSW,200,3.0,6.0,87,0.00,,,0.00,meteohub,2013-06-17 05:42:00,
2013-06-17 00:47:00,73.0,68.9,29.91,SSW,211,4.0,6.0,87,0.00,,,0.00,meteohub,2013-06-17 05:47:00,
2013-06-17 00:52:00,73.0,68.9,29.91,SSW,211,1.0,6.0,87,0.00,,,0.00,meteohub,2013-06-17 05:52:00,
2013-06-17 00:57:00,73.0,68.9,29.91,SSW,206,3.0,6.0,87,0.00,,,0.00,meteohub,2013-06-17 05:57:00,
2013-06-17 01:02:00,73.0,68.9,29.91,WSW,240,0.0,6.0,87,0.00,,,0.00,meteohub,2013-06-17 06:02:00,
2013-06-17 01:07:00,72.7,68.9,29.92,SW,217,2.0,6.0,88,0.00,,,0.00,meteohub,2013-06-17 06:07:00,
2013-06-17 01:12:00,72.7,68.9,29.92,SW,232,2.0,6.0,88,0.00,,,0.00,meteohub,2013-06-17 06:12:00,
2013-06-17 01:17:00,72.3,68.5,29.92,SW,229,2.0,6.0,88,0.00,,,0.00,meteohub,2013-06-17 06:17:00,
2013-06-17 01:22:00,72.3,68.5,29.92,SW,234,0.0,5.0,88,0.00,,,0.00,meteohub,2013-06-17 06:22:00,
2013-06-17 01:27:00,72.0,68.5,29.92,SW,228,1.0,4.0,89,0.00,,,0.00,meteohub,2013-06-17 06:27:00,
2013-06-17 01:32:00,72.1,68.7,29.92,SW,227,0.0,4.0,89,0.00,,,0.00,meteohub,2013-06-17 06:32:00,
2013-06-17 01:37:00,72.1,68.7,29.92,SW,223,1.0,5.0,89,0.00,,,0.00,meteohub,2013-06-17 06:37:00,
2013-06-17 01:42:00,72.1,68.7,29.91,SW,229,0.0,5.0,89,0.00,,,0.00,meteohub,2013-06-17 06:42:00,
2013-06-17 01:47:00,72.1,68.7,29.91,SW,229,2.0,5.0,89,0.00,,,0.00,meteohub,2013-06-17 06:47:00,
2013-06-17 01:52:00,72.0,68.5,29.91,SW,232,0.0,5.0,89,0.00,,,0.00,meteohub,2013-06-17 06:52:00,
2013-06-17 01:57:00,71.8,68.4,29.91,WSW,247,0.0,5.0,89,0.00,,,0.00,meteohub,2013-06-17 06:57:00,
2013-06-17 02:02:00,71.4,68.4,29.91,WSW,251,0.0,5.0,90,0.00,,,0.00,meteohub,2013-06-17 07:02:00,
2013-06-17 02:07:00,71.2,68.2,29.91,South,184,0.0,3.0,90,0.00,,,0.00,meteohub,2013-06-17 07:07:00,
2013-06-17 02:12:00,71.8,68.7,29.91,SW,220,0.0,6.0,90,0.00,,,0.00,meteohub,2013-06-17 07:12:00,
2013-06-17 02:17:00,71.8,68.4,29.91,South,188,4.0,6.0,89,0.00,,,0.00,meteohub,2013-06-17 07:17:00,
2013-06-17 02:22:00,72.0,68.5,29.90,SSW,209,0.0,6.0,89,0.00,,,0.00,meteohub,2013-06-17 07:22:00,
2013-06-17 02:27:00,71.8,68.4,29.90,SW,217,0.0,4.0,89,0.00,,,0.00,meteohub,2013-06-17 07:27:00,
2013-06-17 02:32:00,71.8,68.4,29.90,SSW,205,0.0,4.0,89,0.00,,,0.00,meteohub,2013-06-17 07:32:00,
2013-06-17 02:37:00,71.8,68.4,29.90,SSW,200,0.0,3.0,89,0.00,,,0.00,meteohub,2013-06-17 07:37:00,
2013-06-17 02:42:00,71.8,68.4,29.90,SSW,207,1.0,5.0,89,0.00,,,0.00,meteohub,2013-06-17 07:42:00,
2013-06-17 02:47:00,71.4,68.0,29.90,SW,223,0.0,5.0,89,0.00,,,0.00,meteohub,2013-06-17 07:47:00,
2013-06-17 02:52:00,71.4,68.0,29.90,SSW,204,4.0,5.0,89,0.00,,,0.00,meteohub,2013-06-17 07:52:00,
2013-06-17 02:57:00,71.4,68.0,29.90,SSW,200,1.0,5.0,89,0.00,,,0.00,meteohub,2013-06-17 07:57:00,
2013-06-17 03:02:00,71.4,68.0,29.90,SSW,196,2.0,5.0,89,0.00,,,0.00,meteohub,2013-06-17 08:02:00,
2013-06-17 03:07:00,71.4,68.0,29.90,SW,225,1.0,5.0,89,0.00,,,0.00,meteohub,2013-06-17 08:07:00,
2013-06-17 03:12:00,71.4,68.0,29.91,SW,217,1.0,3.0,89,0.00,,,0.00,meteohub,2013-06-17 08:12:00,
2013-06-17 03:17:00,71.2,67.8,29.91,SSW,202,1.0,3.0,89,0.00,,,0.00,meteohub,2013-06-17 08:17:00,
2013-06-17 03:22:00,71.2,68.2,29.91,SW,221,0.0,5.0,90,0.00,,,0.00,meteohub,2013-06-17 08:22:00,
2013-06-17 03:27:00,71.2,68.2,29.91,SW,215,1.0,5.0,90,0.00,,,0.00,meteohub,2013-06-17 08:27:00,
2013-06-17 03:32:00,71.4,68.4,29.91,South,187,2.0,5.0,90,0.00,,,0.00,meteohub,2013-06-17 08:32:00,
2013-06-17 03:37:00,71.4,68.0,29.91,SW,227,2.0,5.0,89,0.00,,,0.00,meteohub,2013-06-17 08:37:00,
2013-06-17 03:42:00,71.4,68.0,29.91,SW,227,0.0,5.0,89,0.00,,,0.00,meteohub,2013-06-17 08:42:00,
2013-06-17 03:47:00,71.2,68.2,29.91,WSW,238,0.0,5.0,90,0.00,,,0.00,meteohub,2013-06-17 08:47:00,
2013-06-17 03:52:00,71.1,68.4,29.91,SW,236,0.0,6.0,91,0.00,,,0.00,meteohub,2013-06-17 08:52:00,
2013-06-17 03:57:00,70.9,68.2,29.91,WSW,241,2.0,6.0,91,0.00,,,0.00,meteohub,2013-06-17 08:57:00,
2013-06-17 04:02:00,70.9,68.4,29.91,WSW,240,1.0,5.0,92,0.00,,,0.00,meteohub,2013-06-17 09:02:00,
2013-06-17 04:07:00,70.7,68.2,29.91,WSW,248,0.0,4.0,92,0.00,,,0.00,meteohub,2013-06-17 09:07:00,
2013-06-17 04:12:00,70.5,68.0,29.91,WSW,251,0.0,2.0,92,0.00,,,0.00,meteohub,2013-06-17 09:12:00,
2013-06-17 04:17:00,70.5,68.4,29.91,WSW,246,0.0,2.0,93,0.00,,,0.00,meteohub,2013-06-17 09:17:00,
2013-06-17 04:22:00,70.5,68.4,29.91,SW,222,0.0,2.0,93,0.00,,,0.00,meteohub,2013-06-17 09:22:00,
2013-06-17 04:27:00,70.5,68.0,29.92,SW,234,0.0,4.0,92,0.00,,,0.00,meteohub,2013-06-17 09:27:00,
2013-06-17 04:32:00,70.7,68.2,29.91,SW,218,0.0,5.0,92,0.00,,,0.00,meteohub,2013-06-17 09:32:00,
2013-06-17 04:37:00,70.7,68.2,29.91,SW,232,0.0,5.0,92,0.00,,,0.00,meteohub,2013-06-17 09:37:00,
2013-06-17 04:42:00,70.7,68.2,29.91,South,184,0.0,5.0,92,0.00,,,0.00,meteohub,2013-06-17 09:42:00,
2013-06-17 04:47:00,70.7,68.2,29.91,SSW,198,1.0,5.0,92,0.00,,,0.00,meteohub,2013-06-17 09:47:00,
2013-06-17 04:52:00,70.5,68.0,29.91,SSW,213,1.0,6.0,92,0.00,,,0.00,meteohub,2013-06-17 09:52:00,
2013-06-17 04:57:00,70.7,68.2,29.91,SSW,192,3.0,6.0,92,0.00,,,0.00,meteohub,2013-06-17 09:57:00,
2013-06-17 05:02:00,70.7,68.0,29.91,SSW,212,0.0,6.0,91,0.00,,,0.00,meteohub,2013-06-17 10:02:00,
2013-06-17 05:07:00,70.3,67.8,29.91,South,186,2.0,6.0,92,0.00,,,0.00,meteohub,2013-06-17 10:07:00,
2013-06-17 05:12:00,70.3,67.8,29.91,SW,223,0.0,5.0,92,0.00,,,0.00,meteohub,2013-06-17 10:12:00,
2013-06-17 05:17:00,70.2,67.6,29.91,SW,228,0.0,4.0,92,0.00,,,0.00,meteohub,2013-06-17 10:17:00,
2013-06-17 05:22:00,70.2,67.6,29.91,SSW,209,0.0,4.0,92,0.00,,,0.00,meteohub,2013-06-17 10:22:00,
2013-06-17 05:27:00,70.3,67.8,29.91,SSW,196,4.0,4.0,92,0.00,,,0.00,meteohub,2013-06-17 10:27:00,
2013-06-17 05:32:00,70.3,67.8,29.90,SSW,201,0.0,5.0,92,0.00,,,0.00,meteohub,2013-06-17 10:32:00,
2013-06-17 05:37:00,70.2,67.6,29.90,South,184,1.0,5.0,92,0.00,,,0.00,meteohub,2013-06-17 10:37:00,
2013-06-17 05:42:00,70.2,67.6,29.91,SSW,200,0.0,5.0,92,0.00,,,0.00,meteohub,2013-06-17 10:42:00,
2013-06-17 05:47:00,70.0,67.5,29.91,SW,216,0.0,4.0,92,0.00,,,0.00,meteohub,2013-06-17 10:47:00,
2013-06-17 05:52:00,70.0,67.5,29.91,SW,224,0.0,4.0,92,0.00,,,0.00,meteohub,2013-06-17 10:52:00,
2013-06-17 05:57:00,69.6,67.5,29.91,SW,225,0.0,4.0,93,0.00,,,0.00,meteohub,2013-06-17 10:57:00,
2013-06-17 06:02:00,69.6,67.5,29.91,SW,226,0.0,0.0,93,0.00,,,0.00,meteohub,2013-06-17 11:02:00,
2013-06-17 06:07:00,69.4,67.3,29.91,SW,227,0.0,0.0,93,0.00,,,0.00,meteohub,2013-06-17 11:07:00,
2013-06-17 06:12:00,69.3,67.1,29.91,SW,229,0.0,0.0,93,0.00,,,0.00,meteohub,2013-06-17 11:12:00,
2013-06-17 06:17:00,69.3,67.5,29.91,WSW,239,0.0,0.0,94,0.00,,,0.00,meteohub,2013-06-17 11:17:00,
2013-06-17 06:22:00,69.3,67.5,29.91,WSW,252,0.0,0.0,94,0.00,,,0.00,meteohub,2013-06-17 11:22:00,
2013-06-17 06:27:00,69.1,67.3,29.91,WSW,254,0.0,0.0,94,0.00,,,0.00,meteohub,2013-06-17 11:27:00,
2013-06-17 06:32:00,69.1,67.3,29.91,West,267,0.0,0.0,94,0.00,,,0.00,meteohub,2013-06-17 11:32:00,
2013-06-17 06:37:00,69.1,67.3,29.91,West,276,0.0,1.0,94,0.00,,,0.00,meteohub,2013-06-17 11:37:00,
2013-06-17 06:42:00,69.3,67.5,29.92,West,265,0.0,1.0,94,0.00,,,0.00,meteohub,2013-06-17 11:42:00,
2013-06-17 06:47:00,69.4,67.6,29.92,West,265,0.0,1.0,94,0.00,,,0.00,meteohub,2013-06-17 11:47:00,
2013-06-17 06:52:00,69.4,68.0,29.91,West,265,0.0,1.0,95,0.00,,,0.00,meteohub,2013-06-17 11:52:00,
2013-06-17 06:57:00,69.6,68.2,29.91,South,175,2.0,0.0,95,0.00,,,0.00,meteohub,2013-06-17 11:57:00,
2013-06-17 07:02:00,70.2,68.7,29.91,South,174,4.0,7.0,95,0.00,,,0.00,meteohub,2013-06-17 12:02:00,
2013-06-17 07:07:00,70.3,68.2,29.91,South,185,4.0,7.0,93,0.00,,,0.00,meteohub,2013-06-17 12:07:00,
2013-06-17 07:12:00,70.3,67.8,29.91,SSW,198,0.0,8.0,92,0.00,,,0.00,meteohub,2013-06-17 12:12:00,
2013-06-17 07:17:00,70.5,68.0,29.91,South,171,1.0,8.0,92,0.00,,,0.00,meteohub,2013-06-17 12:17:00,
2013-06-17 07:22:00,70.5,68.0,29.91,SSE,166,0.0,8.0,92,0.00,,,0.00,meteohub,2013-06-17 12:22:00,
2013-06-17 07:27:00,70.7,68.2,29.92,SSW,192,0.0,6.0,92,0.00,,,0.00,meteohub,2013-06-17 12:27:00,
2013-06-17 07:32:00,70.9,68.4,29.92,SSW,211,0.0,6.0,92,0.00,,,0.00,meteohub,2013-06-17 12:32:00,
2013-06-17 07:37:00,70.9,68.4,29.92,SSW,194,0.0,5.0,92,0.00,,,0.00,meteohub,2013-06-17 12:37:00,
2013-06-17 07:42:00,71.1,68.5,29.92,SSW,197,2.0,4.0,92,0.00,,,0.00,meteohub,2013-06-17 12:42:00,
2013-06-17 07:47:00,71.1,68.4,29.92,SSW,193,1.0,5.0,91,0.00,,,0.00,meteohub,2013-06-17 12:47:00,
2013-06-17 07:52:00,71.4,68.7,29.92,SSW,207,0.0,5.0,91,0.00,,,0.00,meteohub,2013-06-17 12:52:00,
2013-06-17 07:57:00,71.4,68.9,29.92,WSW,240,0.0,5.0,92,0.00,,,0.00,meteohub,2013-06-17 12:57:00,
2013-06-17 08:02:00,71.8,69.1,29.92,South,181,0.0,4.0,91,0.00,,,0.00,meteohub,2013-06-17 13:02:00,
2013-06-17 08:07:00,72.3,69.3,29.92,SSW,197,0.0,4.0,90,0.00,,,0.00,meteohub,2013-06-17 13:07:00,
2013-06-17 08:12:00,72.7,69.3,29.92,SW,230,0.0,4.0,89,0.00,,,0.00,meteohub,2013-06-17 13:12:00,
2013-06-17 08:17:00,72.7,69.3,29.92,SSW,194,0.0,4.0,89,0.00,,,0.00,meteohub,2013-06-17 13:17:00,
2013-06-17 08:22:00,72.9,69.4,29.92,SSE,167,1.0,5.0,89,0.00,,,0.00,meteohub,2013-06-17 13:22:00,
2013-06-17 08:27:00,73.6,69.8,29.92,SSE,164,4.0,5.0,88,0.00,,,0.00,meteohub,2013-06-17 13:27:00,
2013-06-17 08:32:00,74.1,70.0,29.92,SW,233,2.0,6.0,87,0.00,,,0.00,meteohub,2013-06-17 13:32:00,
2013-06-17 08:37:00,74.3,69.8,29.92,SSW,199,6.0,6.0,86,0.00,,,0.00,meteohub,2013-06-17 13:37:00,
2013-06-17 08:42:00,74.3,69.4,29.93,SSW,208,0.0,7.0,85,0.00,,,0.00,meteohub,2013-06-17 13:42:00,
2013-06-17 08:47:00,73.8,69.3,29.93,SSE,154,4.0,8.0,86,0.00,,,0.00,meteohub,2013-06-17 13:47:00,
2013-06-17 08:52:00,73.8,69.6,29.93,WSW,237,0.0,8.0,87,0.00,,,0.00,meteohub,2013-06-17 13:52:00,
2013-06-17 08:57:00,74.1,69.6,29.93,WSW,238,2.0,5.0,86,0.00,,,0.00,meteohub,2013-06-17 13:57:00,
2013-06-17 09:02:00,74.1,70.0,29.93,SSW,194,2.0,5.0,87,0.00,,,0.00,meteohub,2013-06-17 14:02:00,
2013-06-17 09:07:00,74.5,70.0,29.93,South,186,5.0,5.0,86,0.00,,,0.00,meteohub,2013-06-17 14:07:00,
2013-06-17 09:12:00,75.6,70.7,29.93,South,171,5.0,6.0,85,0.00,,,0.00,meteohub,2013-06-17 14:12:00,
2013-06-17 09:17:00,76.6,71.1,29.93,SW,216,4.0,6.0,83,0.00,,,0.00,meteohub,2013-06-17 14:17:00,
2013-06-17 09:22:00,76.8,70.9,29.93,South,184,6.0,6.0,82,0.00,,,0.00,meteohub,2013-06-17 14:22:00,
2013-06-17 09:27:00,77.4,71.4,29.93,SSW,204,6.0,7.0,82,0.00,,,0.00,meteohub,2013-06-17 14:27:00,
2013-06-17 09:32:00,78.1,71.4,29.92,SSW,213,5.0,8.0,80,0.00,,,0.00,meteohub,2013-06-17 14:32:00,
2013-06-17 09:37:00,78.4,72.1,29.92,South,180,4.0,8.0,81,0.00,,,0.00,meteohub,2013-06-17 14:37:00,
2013-06-17 09:42:00,78.6,72.0,29.93,SSW,192,5.0,8.0,80,0.00,,,0.00,meteohub,2013-06-17 14:42:00,
2013-06-17 09:47:00,78.4,71.4,29.93,WSW,244,6.0,8.0,79,0.00,,,0.00,meteohub,2013-06-17 14:47:00,
2013-06-17 09:52:00,78.4,71.8,29.93,WSW,250,0.0,8.0,80,0.00,,,0.00,meteohub,2013-06-17 14:52:00,
2013-06-17 09:57:00,79.0,71.6,29.92,SSW,197,2.0,8.0,78,0.00,,,0.00,meteohub,2013-06-17 14:57:00,
2013-06-17 10:02:00,79.7,71.8,29.92,South,189,4.0,7.0,77,0.00,,,0.00,meteohub,2013-06-17 15:02:00,
2013-06-17 10:07:00,80.1,71.8,29.92,South,182,4.0,8.0,76,0.00,,,0.00,meteohub,2013-06-17 15:07:00,
2013-06-17 10:12:00,80.8,71.8,29.92,SSW,209,5.0,8.0,74,0.00,,,0.00,meteohub,2013-06-17 15:12:00,
2013-06-17 10:17:00,81.0,72.0,29.92,SW,214,1.0,8.0,74,0.00,,,0.00,meteohub,2013-06-17 15:17:00,
2013-06-17 10:22:00,81.0,71.4,29.92,SW,223,1.0,8.0,73,0.00,,,0.00,meteohub,2013-06-17 15:22:00,
2013-06-17 10:27:00,81.1,70.3,29.92,West,259,0.0,7.0,70,0.00,,,0.00,meteohub,2013-06-17 15:27:00,
2013-06-17 10:32:00,81.3,70.5,29.92,ESE,105,3.0,6.0,70,0.00,,,0.00,meteohub,2013-06-17 15:32:00,
2013-06-17 10:37:00,81.9,70.7,29.92,South,179,5.0,6.0,69,0.00,,,0.00,meteohub,2013-06-17 15:37:00,
2013-06-17 10:42:00,82.6,70.9,29.91,SSE,159,4.0,7.0,68,0.00,,,0.00,meteohub,2013-06-17 15:42:00,
2013-06-17 10:47:00,82.8,69.3,29.91,South,190,6.0,7.0,64,0.00,,,0.00,meteohub,2013-06-17 15:47:00,
2013-06-17 10:52:00,82.8,69.8,29.92,SW,234,1.0,7.0,65,0.00,,,0.00,meteohub,2013-06-17 15:52:00,
2013-06-17 10:57:00,83.1,70.2,29.91,WNW,301,0.0,7.0,65,0.00,,,0.00,meteohub,2013-06-17 15:57:00,
2013-06-17 11:02:00,83.7,70.2,29.91,SSE,159,2.0,8.0,64,0.00,,,0.00,meteohub,2013-06-17 16:02:00,
2013-06-17 11:07:00,83.7,70.2,29.91,SE,140,4.0,8.0,64,0.00,,,0.00,meteohub,2013-06-17 16:07:00,
2013-06-17 11:12:00,83.8,70.0,29.91,ESE,119,1.0,8.0,63,0.00,,,0.00,meteohub,2013-06-17 16:12:00,
2013-06-17 11:17:00,84.0,69.6,29.91,South,175,4.0,7.0,62,0.00,,,0.00,meteohub,2013-06-17 16:17:00,
2013-06-17 11:22:00,83.8,68.9,29.91,SW,219,0.0,7.0,61,0.00,,,0.00,meteohub,2013-06-17 16:22:00,
2013-06-17 11:27:00,84.6,69.6,29.91,South,173,5.0,7.0,61,0.00,,,0.00,meteohub,2013-06-17 16:27:00,
2013-06-17 11:32:00,84.7,69.8,29.91,SSE,161,6.0,7.0,61,0.00,,,0.00,meteohub,2013-06-17 16:32:00,
2013-06-17 11:37:00,84.9,68.9,29.91,SSW,196,6.0,7.0,59,0.00,,,0.00,meteohub,2013-06-17 16:37:00,
2013-06-17 11:42:00,84.6,67.6,29.91,West,265,1.0,8.0,57,0.00,,,0.00,meteohub,2013-06-17 16:42:00,
2013-06-17 11:48:00,84.7,67.8,29.91,SE,145,3.0,8.0,57,0.00,,,0.00,meteohub,2013-06-17 16:48:00,
2013-06-17 11:53:00,84.4,67.5,29.91,SE,134,2.0,8.0,57,0.00,,,0.00,meteohub,2013-06-17 16:53:00,
2013-06-17 11:58:00,84.7,67.3,29.91,SSE,154,2.0,8.0,56,0.00,,,0.00,meteohub,2013-06-17 16:58:00,
2013-06-17 12:03:00,84.9,64.2,29.91,SE,143,4.0,8.0,50,0.00,,,0.00,meteohub,2013-06-17 17:03:00,
2013-06-17 12:08:00,85.5,64.0,29.91,SSE,168,5.0,6.0,49,0.00,,,0.00,meteohub,2013-06-17 17:08:00,
2013-06-17 12:13:00,85.8,64.4,29.91,SSE,161,5.0,7.0,49,0.00,,,0.00,meteohub,2013-06-17 17:13:00,
2013-06-17 12:18:00,86.2,63.5,29.91,South,183,5.0,7.0,47,0.00,,,0.00,meteohub,2013-06-17 17:18:00,
2013-06-17 12:23:00,86.4,64.4,29.91,SSE,165,5.0,7.0,48,0.00,,,0.00,meteohub,2013-06-17 17:23:00,
2013-06-17 12:28:00,86.7,64.0,29.91,SSW,193,6.0,7.0,47,0.00,,,0.00,meteohub,2013-06-17 17:28:00,
2013-06-17 12:33:00,86.7,64.0,29.91,SSE,148,4.0,7.0,47,0.00,,,0.00,meteohub,2013-06-17 17:33:00,
2013-06-17 12:38:00,86.4,63.7,29.91,SSE,161,4.0,7.0,47,0.00,,,0.00,meteohub,2013-06-17 17:38:00,
2013-06-17 12:43:00,86.4,63.7,29.91,SE,144,3.0,7.0,47,0.00,,,0.00,meteohub,2013-06-17 17:43:00,
2013-06-17 12:48:00,86.4,63.1,29.91,South,180,5.0,7.0,46,0.00,,,0.00,meteohub,2013-06-17 17:48:00,
2013-06-17 12:53:00,86.4,63.1,29.91,South,177,4.0,7.0,46,0.00,,,0.00,meteohub,2013-06-17 17:53:00,
2013-06-17 12:59:00,86.9,61.7,29.91,SSW,195,4.0,7.0,43,0.00,,,0.00,meteohub,2013-06-17 17:59:00,
2013-06-17 13:04:00,87.1,61.9,29.91,SSW,200,6.0,8.0,43,0.00,,,0.00,meteohub,2013-06-17 18:04:00,
2013-06-17 13:09:00,87.1,61.2,29.91,SSW,205,5.0,8.0,42,0.00,,,0.00,meteohub,2013-06-17 18:09:00,
2013-06-17 13:14:00,87.1,61.9,29.91,South,190,4.0,8.0,43,0.00,,,0.00,meteohub,2013-06-17 18:14:00,
2013-06-17 13:19:00,86.9,60.4,29.91,East,93,0.0,8.0,41,0.00,,,0.00,meteohub,2013-06-17 18:19:00,
2013-06-17 13:24:00,87.8,60.4,29.91,South,173,4.0,8.0,40,0.00,,,0.00,meteohub,2013-06-17 18:24:00,
2013-06-17 13:29:00,87.6,58.1,29.90,WSW,258,4.0,6.0,37,0.00,,,0.00,meteohub,2013-06-17 18:29:00,
2013-06-17 13:34:00,88.0,59.2,29.91,SSE,155,0.0,6.0,38,0.00,,,0.00,meteohub,2013-06-17 18:34:00,
2013-06-17 13:39:00,88.3,58.8,29.91,SE,138,2.0,6.0,37,0.00,,,0.00,meteohub,2013-06-17 18:39:00,
2013-06-17 13:44:00,88.0,58.5,29.90,South,178,5.0,7.0,37,0.00,,,0.00,meteohub,2013-06-17 18:44:00,
2013-06-17 13:49:00,88.0,56.8,29.90,SSW,192,4.0,7.0,35,0.00,,,0.00,meteohub,2013-06-17 18:49:00,
2013-06-17 13:54:00,88.0,57.7,29.90,SW,215,2.0,8.0,36,0.00,,,0.00,meteohub,2013-06-17 18:54:00,
2013-06-17 13:59:00,88.0,56.1,29.90,SSW,206,2.0,8.0,34,0.00,,,0.00,meteohub,2013-06-17 18:59:00,
2013-06-17 14:05:00,87.8,55.9,29.89,WSW,240,3.0,8.0,34,0.00,,,0.00,meteohub,2013-06-17 19:05:00,
2013-06-17 14:10:00,87.6,58.1,29.89,North,9,1.0,7.0,37,0.00,,,0.00,meteohub,2013-06-17 19:10:00,
2013-06-17 14:15:00,88.2,58.6,29.89,NW,321,1.0,7.0,37,0.00,,,0.00,meteohub,2013-06-17 19:15:00,
2013-06-17 14:20:00,88.9,59.2,29.89,NNE,13,0.0,6.0,37,0.00,,,0.00,meteohub,2013-06-17 19:20:00,
2013-06-17 14:25:00,89.2,57.9,29.88,NNE,15,1.0,6.0,35,0.00,,,0.00,meteohub,2013-06-17 19:25:00,
2013-06-17 14:30:00,89.6,58.3,29.88,SSW,213,4.0,5.0,35,0.00,,,0.00,meteohub,2013-06-17 19:30:00,
2013-06-17 14:35:00,89.2,57.9,29.88,WSW,241,3.0,5.0,35,0.00,,,0.00,meteohub,2013-06-17 19:35:00,
2013-06-17 14:40:00,89.1,57.0,29.88,WSW,252,0.0,7.0,34,0.00,,,0.00,meteohub,2013-06-17 19:40:00,
2013-06-17 14:45:00,89.1,56.3,29.88,SSE,168,5.0,7.0,33,0.00,,,0.00,meteohub,2013-06-17 19:45:00,
2013-06-17 14:50:00,88.9,56.8,29.88,South,189,6.0,7.0,34,0.00,,,0.00,meteohub,2013-06-17 19:50:00,
2013-06-17 14:55:00,88.5,57.4,29.87,SSW,210,4.0,9.0,35,0.00,,,0.00,meteohub,2013-06-17 19:55:00,
2013-06-17 15:00:00,88.0,56.8,29.87,NW,314,0.0,9.0,35,0.00,,,0.00,meteohub,2013-06-17 20:00:00,
2013-06-17 15:05:00,88.0,56.8,29.86,South,178,4.0,9.0,35,0.00,,,0.00,meteohub,2013-06-17 20:05:00,
2013-06-17 15:10:00,88.0,56.8,29.86,ESE,109,0.0,6.0,35,0.00,,,0.00,meteohub,2013-06-17 20:10:00,
2013-06-17 15:15:00,87.8,55.9,29.86,West,265,0.0,6.0,34,0.00,,,0.00,meteohub,2013-06-17 20:15:00,
2013-06-17 15:20:00,88.0,57.7,29.86,West,269,1.0,6.0,36,0.00,,,0.00,meteohub,2013-06-17 20:20:00,
2013-06-17 15:25:00,88.3,57.9,29.86,SW,219,5.0,6.0,36,0.00,,,0.00,meteohub,2013-06-17 20:25:00,
2013-06-17 15:30:00,88.3,56.5,29.86,West,259,0.0,6.0,34,0.00,,,0.00,meteohub,2013-06-17 20:30:00,
2013-06-17 15:36:00,88.2,56.3,29.86,West,279,1.0,6.0,34,0.00,,,0.00,meteohub,2013-06-17 20:36:00,
2013-06-17 15:41:00,88.2,58.6,29.86,SE,144,1.0,5.0,37,0.00,,,0.00,meteohub,2013-06-17 20:41:00,
2013-06-17 15:46:00,88.2,58.6,29.86,ENE,71,2.0,5.0,37,0.00,,,0.00,meteohub,2013-06-17 20:46:00,
2013-06-17 15:51:00,88.0,58.5,29.85,South,172,2.0,4.0,37,0.00,,,0.00,meteohub,2013-06-17 20:51:00,
2013-06-17 15:56:00,87.8,59.0,29.85,SE,134,0.0,6.0,38,0.00,,,0.00,meteohub,2013-06-17 20:56:00,
2013-06-17 16:01:00,88.3,57.9,29.85,NE,46,1.0,6.0,36,0.00,,,0.00,meteohub,2013-06-17 21:01:00,
2013-06-17 16:06:00,88.5,59.0,29.85,NE,46,1.0,5.0,37,0.00,,,0.00,meteohub,2013-06-17 21:06:00,
2013-06-17 16:11:00,88.9,58.5,29.85,NE,51,0.0,5.0,36,0.00,,,0.00,meteohub,2013-06-17 21:11:00,
2013-06-17 16:16:00,88.5,58.1,29.85,SW,225,0.0,6.0,36,0.00,,,0.00,meteohub,2013-06-17 21:16:00,
2013-06-17 16:21:00,88.3,58.8,29.85,SSW,200,4.0,6.0,37,0.00,,,0.00,meteohub,2013-06-17 21:21:00,
2013-06-17 16:26:00,88.5,59.0,29.85,WSW,239,0.0,6.0,37,0.00,,,0.00,meteohub,2013-06-17 21:26:00,
2013-06-17 16:31:00,88.3,56.5,29.85,East,80,0.0,6.0,34,0.00,,,0.00,meteohub,2013-06-17 21:31:00,
2013-06-17 16:36:00,88.0,56.1,29.85,SSE,168,0.0,6.0,34,0.00,,,0.00,meteohub,2013-06-17 21:36:00,
2013-06-17 16:41:00,87.6,56.7,29.85,SE,127,0.0,6.0,35,0.00,,,0.00,meteohub,2013-06-17 21:41:00,
2013-06-17 16:46:00,87.6,57.4,29.85,SSE,162,5.0,5.0,36,0.00,,,0.00,meteohub,2013-06-17 21:46:00,
2013-06-17 16:51:00,87.3,57.0,29.85,SE,142,2.0,6.0,36,0.00,,,0.00,meteohub,2013-06-17 21:51:00,
2013-06-17 16:56:00,87.1,56.1,29.85,ESE,103,0.0,6.0,35,0.00,,,0.00,meteohub,2013-06-17 21:56:00,
2013-06-17 17:01:00,86.9,57.6,29.85,SSE,150,2.0,6.0,37,0.00,,,0.00,meteohub,2013-06-17 22:01:00,
2013-06-17 17:07:00,86.5,58.6,29.85,SSE,148,1.0,7.0,39,0.00,,,0.00,meteohub,2013-06-17 22:07:00,
2013-06-17 17:12:00,86.2,61.0,29.85,SSE,161,0.0,7.0,43,0.00,,,0.00,meteohub,2013-06-17 22:12:00,
2013-06-17 17:17:00,85.8,60.1,29.85,SSE,148,0.0,4.0,42,0.00,,,0.00,meteohub,2013-06-17 22:17:00,
2013-06-17 17:22:00,85.6,60.6,29.85,SE,139,2.0,4.0,43,0.00,,,0.00,meteohub,2013-06-17 22:22:00,
2013-06-17 17:27:00,85.5,57.0,29.84,SSE,167,0.0,5.0,38,0.00,,,0.00,meteohub,2013-06-17 22:27:00,
2013-06-17 17:32:00,85.5,58.5,29.84,SSE,160,0.0,5.0,40,0.00,,,0.00,meteohub,2013-06-17 22:32:00,
2013-06-17 17:37:00,85.3,59.0,29.84,SSE,162,0.0,5.0,41,0.00,,,0.00,meteohub,2013-06-17 22:37:00,
2013-06-17 17:42:00,85.1,56.7,29.84,SSE,163,0.0,5.0,38,0.00,,,0.00,meteohub,2013-06-17 22:42:00,
2013-06-17 17:47:00,84.9,58.6,29.84,SSE,163,0.0,1.0,41,0.00,,,0.00,meteohub,2013-06-17 22:47:00,
2013-06-17 17:52:00,84.7,58.5,29.84,South,183,0.0,0.0,41,0.00,,,0.00,meteohub,2013-06-17 22:52:00,
2013-06-17 17:57:00,84.7,61.7,29.85,South,172,0.0,2.0,46,0.00,,,0.00,meteohub,2013-06-17 22:57:00,
2013-06-17 18:02:00,84.6,60.3,29.85,South,186,1.0,4.0,44,0.00,,,0.00,meteohub,2013-06-17 23:02:00,
2013-06-17 18:07:00,84.4,61.3,29.84,South,182,0.0,4.0,46,0.00,,,0.00,meteohub,2013-06-17 23:07:00,
2013-06-17 18:12:00,83.8,62.6,29.84,South,178,0.0,4.0,49,0.00,,,0.00,meteohub,2013-06-17 23:12:00,
2013-06-17 18:17:00,83.5,63.5,29.84,SSE,168,0.0,4.0,51,0.00,,,0.00,meteohub,2013-06-17 23:17:00,
2013-06-17 18:22:00,82.8,63.3,29.85,SSE,153,0.0,0.0,52,0.00,,,0.00,meteohub,2013-06-17 23:22:00,
2013-06-17 18:27:00,82.2,62.8,29.85,SE,146,0.0,0.0,52,0.00,,,0.00,meteohub,2013-06-17 23:27:00,
2013-06-17 18:32:00,82.0,62.1,29.85,SSE,156,2.0,3.0,51,0.00,,,0.00,meteohub,2013-06-17 23:32:00,
2013-06-17 18:37:00,81.9,63.0,29.85,SSE,157,0.0,5.0,53,0.00,,,0.00,meteohub,2013-06-17 23:37:00,
2013-06-17 18:42:00,81.9,62.4,29.86,SSE,168,2.0,5.0,52,0.00,,,0.00,meteohub,2013-06-17 23:42:00,
2013-06-17 18:47:00,81.9,61.3,29.86,South,172,0.0,4.0,50,0.00,,,0.00,meteohub,2013-06-17 23:47:00,
2013-06-17 18:52:00,82.2,61.2,29.86,South,171,0.0,2.0,49,0.00,,,0.00,meteohub,2013-06-17 23:52:00,
2013-06-17 18:57:00,82.2,62.2,29.86,SSE,167,0.0,2.0,51,0.00,,,0.00,meteohub,2013-06-17 23:57:00,
2013-06-17 19:02:00,81.9,60.8,29.86,SSE,159,0.0,1.0,49,0.00,,,0.00,meteohub,2013-06-18 00:02:00,
2013-06-17 19:07:00,81.9,60.8,29.86,SSE,155,0.0,0.0,49,0.00,,,0.00,meteohub,2013-06-18 00:07:00,
2013-06-17 19:12:00,81.7,61.2,29.86,SSE,150,0.0,0.0,50,0.00,,,0.00,meteohub,2013-06-18 00:12:00,
2013-06-17 19:17:00,81.5,61.7,29.86,SSE,147,0.0,0.0,51,0.00,,,0.00,meteohub,2013-06-18 00:17:00,
2013-06-17 19:22:00,81.1,61.3,29.86,SE,143,0.0,0.0,51,0.00,,,0.00,meteohub,2013-06-18 00:22:00,
2013-06-17 19:27:00,80.8,61.0,29.86,SE,143,0.0,0.0,51,0.00,,,0.00,meteohub,2013-06-18 00:27:00,
2013-06-17 19:32:00,80.2,61.0,29.86,ESE,114,0.0,0.0,52,0.00,,,0.00,meteohub,2013-06-18 00:32:00,
2013-06-17 19:37:00,79.9,62.2,29.86,East,94,0.0,0.0,55,0.00,,,0.00,meteohub,2013-06-18 00:37:00,
2013-06-17 19:42:00,79.7,62.6,29.85,East,94,0.0,0.0,56,0.00,,,0.00,meteohub,2013-06-18 00:42:00,
2013-06-17 19:47:00,79.5,63.0,29.85,East,96,0.0,0.0,57,0.00,,,0.00,meteohub,2013-06-18 00:47:00,
2013-06-17 19:52:00,79.5,63.0,29.85,ESE,119,0.0,0.0,57,0.00,,,0.00,meteohub,2013-06-18 00:52:00,
2013-06-17 19:57:00,79.7,63.7,29.85,SE,140,0.0,0.0,58,0.00,,,0.00,meteohub,2013-06-18 00:57:00,
2013-06-17 20:02:00,79.5,63.0,29.85,SSE,155,0.0,0.0,57,0.00,,,0.00,meteohub,2013-06-18 01:02:00,
2013-06-17 20:07:00,79.3,63.3,29.85,SSE,155,0.0,0.0,58,0.00,,,0.00,meteohub,2013-06-18 01:07:00,
2013-06-17 20:12:00,79.2,63.1,29.85,SSE,161,0.0,0.0,58,0.00,,,0.00,meteohub,2013-06-18 01:12:00,
2013-06-17 20:17:00,78.8,62.8,29.85,SSE,167,0.0,1.0,58,0.00,,,0.00,meteohub,2013-06-18 01:17:00,
2013-06-17 20:22:00,78.3,61.7,29.85,SSE,150,1.0,1.0,57,0.00,,,0.00,meteohub,2013-06-18 01:22:00,
2013-06-17 20:27:00,78.3,61.7,29.84,SSE,159,2.0,3.0,57,0.00,,,0.00,meteohub,2013-06-18 01:27:00,
2013-06-17 20:32:00,78.3,62.8,29.84,SSE,162,0.0,4.0,59,0.00,,,0.00,meteohub,2013-06-18 01:32:00,
2013-06-17 20:37:00,78.4,62.4,29.84,SSE,159,0.0,4.0,58,0.00,,,0.00,meteohub,2013-06-18 01:37:00,
2013-06-17 20:42:00,78.4,62.4,29.84,SSE,165,0.0,4.0,58,0.00,,,0.00,meteohub,2013-06-18 01:42:00,
2013-06-17 20:47:00,78.3,62.8,29.84,SSE,168,0.0,0.0,59,0.00,,,0.00,meteohub,2013-06-18 01:47:00,
2013-06-17 20:52:00,78.3,62.8,29.85,SSE,164,0.0,0.0,59,0.00,,,0.00,meteohub,2013-06-18 01:52:00,
2013-06-17 20:57:00,78.1,62.6,29.85,South,172,0.0,0.0,59,0.00,,,0.00,meteohub,2013-06-18 01:57:00,
2013-06-17 21:02:00,77.9,63.0,29.85,South,172,0.0,0.0,60,0.00,,,0.00,meteohub,2013-06-18 02:02:00,
2013-06-17 21:07:00,77.5,63.0,29.85,South,171,0.0,0.0,61,0.00,,,0.00,meteohub,2013-06-18 02:07:00,
2013-06-17 21:12:00,77.4,62.8,29.85,South,174,0.0,0.0,61,0.00,,,0.00,meteohub,2013-06-18 02:12:00,
2013-06-17 21:17:00,77.4,62.8,29.85,SSE,164,0.0,0.0,61,0.00,,,0.00,meteohub,2013-06-18 02:17:00,
2013-06-17 21:22:00,77.2,63.1,29.85,South,179,0.0,0.0,62,0.00,,,0.00,meteohub,2013-06-18 02:22:00,
2013-06-17 21:27:00,77.0,64.8,29.86,South,182,0.0,0.0,66,0.00,,,0.00,meteohub,2013-06-18 02:27:00,
2013-06-17 21:32:00,77.0,63.9,29.86,South,173,0.0,0.0,64,0.00,,,0.00,meteohub,2013-06-18 02:32:00,
2013-06-17 21:37:00,77.0,63.9,29.86,South,175,0.0,0.0,64,0.00,,,0.00,meteohub,2013-06-18 02:37:00,
2013-06-17 21:42:00,76.6,64.4,29.86,SSW,196,5.0,0.0,66,0.00,,,0.00,meteohub,2013-06-18 02:42:00,
2013-06-17 21:47:00,76.8,64.9,29.86,SSW,200,4.0,7.0,67,0.00,,,0.00,meteohub,2013-06-18 02:47:00,
2013-06-17 21:52:00,76.6,65.3,29.86,SSW,206,7.0,7.0,68,0.00,,,0.00,meteohub,2013-06-18 02:52:00,
2013-06-17 21:57:00,76.3,65.8,29.87,SSW,207,3.0,7.0,70,0.00,,,0.00,meteohub,2013-06-18 02:57:00,
2013-06-17 22:02:00,75.9,65.8,29.87,SW,233,5.0,8.0,71,0.00,,,0.00,meteohub,2013-06-18 03:02:00,
2013-06-17 22:07:00,76.1,66.0,29.86,WSW,256,5.0,9.0,71,0.00,,,0.00,meteohub,2013-06-18 03:07:00,
2013-06-17 22:12:00,75.9,66.2,29.87,SSW,204,5.0,9.0,72,0.00,,,0.00,meteohub,2013-06-18 03:12:00,
2013-06-17 22:17:00,75.6,66.4,29.86,SW,219,9.0,13.0,73,0.00,,,0.00,meteohub,2013-06-18 03:17:00,
2013-06-17 22:22:00,75.0,66.2,29.87,WSW,250,6.0,13.0,74,0.00,,,0.00,meteohub,2013-06-18 03:22:00,
2013-06-17 22:27:00,74.8,66.0,29.87,South,186,9.0,14.0,74,0.00,,,0.00,meteohub,2013-06-18 03:27:00,
2013-06-17 22:32:00,74.5,65.7,29.87,SW,227,5.0,14.0,74,0.00,,,0.00,meteohub,2013-06-18 03:32:00,
2013-06-17 22:37:00,74.7,65.8,29.87,SW,236,5.0,14.0,74,0.00,,,0.00,meteohub,2013-06-18 03:37:00,
2013-06-17 22:42:00,74.1,65.3,29.87,SSW,212,7.0,13.0,74,0.00,,,0.00,meteohub,2013-06-18 03:42:00,
2013-06-17 22:47:00,73.9,65.1,29.87,SW,225,7.0,13.0,74,0.00,,,0.00,meteohub,2013-06-18 03:47:00,
2013-06-17 22:52:00,73.9,65.1,29.87,SSW,209,5.0,18.0,74,0.00,,,0.00,meteohub,2013-06-18 03:52:00,
2013-06-17 22:57:00,73.8,64.9,29.87,WSW,242,3.0,18.0,74,0.00,,,0.00,meteohub,2013-06-18 03:57:00,
2013-06-17 23:01:00,73.6,65.1,29.87,West,275,8.0,12.0,75,0.00,,,0.00,meteohub,2013-06-18 04:01:00,
2013-06-17 23:02:00,73.6,65.1,29.87,SSW,207,8.0,12.0,75,0.00,,,0.00,meteohub,2013-06-18 04:02:00,
2013-06-17 23:07:00,73.4,64.9,29.87,SW,221,5.0,10.0,75,0.00,,,0.00,meteohub,2013-06-18 04:07:00,
2013-06-17 23:12:00,73.4,64.6,29.86,WSW,253,5.0,10.0,74,0.00,,,0.00,meteohub,2013-06-18 04:12:00,
2013-06-17 23:17:00,73.0,64.2,29.86,SW,232,4.0,10.0,74,0.00,,,0.00,meteohub,2013-06-18 04:17:00,
2013-06-17 23:23:00,73.2,64.4,29.86,WSW,244,6.0,10.0,74,0.00,,,0.00,meteohub,2013-06-18 04:23:00,
2013-06-17 23:28:00,73.2,64.4,29.87,SW,217,5.0,10.0,74,0.00,,,0.00,meteohub,2013-06-18 04:28:00,
2013-06-17 23:33:00,73.0,64.2,29.87,South,186,5.0,10.0,74,0.00,,,0.00,meteohub,2013-06-18 04:33:00,
2013-06-17 23:38:00,72.9,64.0,29.87,WSW,237,7.0,9.0,74,0.00,,,0.00,meteohub,2013-06-18 04:38:00,
2013-06-17 23:43:00,72.7,64.2,29.87,WSW,241,4.0,9.0,75,0.00,,,0.00,meteohub,2013-06-18 04:43:00,
2013-06-17 23:48:00,72.3,63.9,29.87,SSW,209,7.0,9.0,75,0.00,,,0.00,meteohub,2013-06-18 04:48:00,
2013-06-17 23:53:00,72.1,64.2,29.86,SW,234,8.0,11.0,76,0.00,,,0.00,meteohub,2013-06-18 04:53:00,
2013-06-17 23:58:00,72.1,64.2,29.87,SW,233,5.0,11.0,76,0.00,,,0.00,meteohub,2013-06-18 04:58:00,